Bagotville, Quebec

10:18 AM EDT on October 23, 2017 (GMT -0400)
Bagotville

Weather History for CYBG - March, 2014

Change the Weather History Date:

Friday, March 7, 2014

  Actual Average Record
Temperature  
Mean Temperature 14 °F -  
Max Temperature 35 °F 34 °F 37 °F (2009)
Min Temperature -7 °F 14 °F -16 °F (2007)
Degree Days  
Heating Degree Days 51    
Moisture  
Dew Point 4 °F    
Average Humidity 62    
Maximum Humidity 93    
Minimum Humidity 27    
Precipitation  
Precipitation 0.04 in 0.07 in - ()
Sea Level Pressure  
Sea Level Pressure 30.08 in    
Wind  
Wind Speed 4 mph ()    
Max Wind Speed 15 mph    
Max Gust Speed 23 mph    
Visibility 11.0 miles    
Events Snow    
Averages and records for this station are not official NWS values.
T = Trace of Precipitation, MM = Missing Value Source: Averaged Metar Reports

Daily Weather History Graph

Daily Weather History Graph

Search for Another Location

Airport or City:

Trip Planner

Search our weather history database for the weather conditions in past years. The results will help you decide how hot, cold, wet, or windy it might be!

Date:

Astronomy

Mar. 07, 2014 Rise Set
Actual Time 6:13 AM EST 5:37 PM EST
Civil Twilight 5:42 AM EST 6:08 PM EST
Nautical Twilight 5:06 AM EST 6:44 PM EST
Astronomical Twilight 4:29 AM EST 7:21 PM EST
Moon 9:35 AM EST (3/7) 12:07 AM EST (3/7)
Length of Visible Light 12h 26m
Length of Day
11h 23m
Waxing Crescent, 42% of the Moon is Illuminated
Mar 7
Waxing Crescent
Mar 8
First Quarter
Mar 16
Full
Mar 23
Last Quarter
Mar 30
New

Hourly Weather History & Observations

Time (EST) Temp. Windchill Dew Point Humidity Pressure Visibility Wind Dir Wind Speed Gust Speed Precip Events Conditions
12:00 AM -7.6 °F - -16.6 °F 65% 30.36 in 15.0 mi Calm Calm - N/A   Mostly Cloudy
1:00 AM -3 °F - -11 °F 56% 30.31 in 15 mi East 5.8 mph - -   Clear
1:00 AM -2.2 °F -14.2 °F -11.2 °F 66% 30.31 in 15.0 mi ESE 5.8 mph - N/A   Mostly Cloudy
2:00 AM -2.2 °F -10.4 °F -7.6 °F 78% 30.29 in 15.0 mi ESE 3.5 mph - N/A   Mostly Cloudy
3:00 AM -0.4 °F -14.7 °F -5.8 °F 78% 30.26 in 15.0 mi East 8.1 mph - N/A   Mostly Cloudy
4:00 AM -2.2 °F -10.4 °F -9.4 °F 71% 30.25 in 15.0 mi SE 3.5 mph - N/A   Overcast
5:00 AM -2.2 °F -12.5 °F -9.4 °F 71% 30.23 in 15.0 mi ESE 4.6 mph - N/A   Overcast
6:00 AM -2.2 °F -16.8 °F -9.4 °F 71% 30.19 in 15.0 mi East 8.1 mph - N/A   Mostly Cloudy
7:00 AM -2 °F - -8 °F 62% 30.19 in 25 mi ESE 4.6 mph - -   Mostly Cloudy
7:00 AM -2.2 °F - -7.6 °F 78% 30.19 in 25.0 mi East 2.3 mph - N/A   Mostly Cloudy
8:00 AM 1.4 °F - -4.0 °F 78% 30.18 in 25.0 mi SSE 2.3 mph - N/A   Mostly Cloudy
9:00 AM 8.6 °F 2.0 °F 3.2 °F 79% 30.14 in 25.0 mi NE 3.5 mph - N/A   Mostly Cloudy
10:00 AM 15.8 °F 7.2 °F 12.2 °F 86% 30.13 in 25.0 mi East 5.8 mph - N/A   Overcast
11:00 AM 24.8 °F - 8.6 °F 50% 30.09 in 25.0 mi Calm Calm - N/A   Overcast
12:00 PM 30.2 °F 19.3 °F 10.4 °F 44% 30.05 in 25.0 mi West 15.0 mph 23.0 mph N/A   Mostly Cloudy
1:00 PM 33 °F - 12 °F 27% 29.99 in 25 mi WNW 11.5 mph - -   Overcast
1:00 PM 33.8 °F 25.8 °F 12.2 °F 41% 29.99 in 25.0 mi WNW 10.4 mph - N/A   Overcast
2:00 PM 33.8 °F 27.0 °F 14.0 °F 44% 29.97 in 25.0 mi NW 8.1 mph - N/A   Overcast
3:00 PM 32.0 °F 22.5 °F 12.2 °F 44% 29.96 in 25.0 mi NW 12.7 mph - N/A   Overcast
4:00 PM 30.2 °F 22.6 °F 10.4 °F 44% 29.95 in 25.0 mi NW 8.1 mph - N/A   Overcast
5:00 PM 28.4 °F 21.2 °F 8.6 °F 43% 29.94 in 25.0 mi NNW 6.9 mph - N/A   Overcast
6:00 PM 26.6 °F - 8.6 °F 47% 29.94 in 15.0 mi Calm Calm - N/A   Overcast
7:00 PM 26 °F - 11 °F 39% 29.94 in 15 mi SE 2.3 mph - -   Overcast
7:00 PM 26.6 °F - 10.4 °F 51% 29.94 in 15.0 mi SE 2.3 mph - N/A   Overcast
7:52 PM - - - N/A% - 15.0 mi ESE 2.3 mph - N/A   Unknown
8:00 PM 28.4 °F 22.2 °F 5.0 °F 37% 29.93 in 8.0 mi North 5.8 mph - N/A Snow Light Snow Showers
8:25 PM - - - N/A% - 2.5 mi SW 6.9 mph - N/A   Unknown
9:00 PM 24.8 °F - 23.0 °F 93% 29.92 in 1.5 mi SE 2.3 mph - N/A Snow Light Snow Showers
10:00 PM 24.8 °F 20.5 °F 23.0 °F 93% 29.88 in 1.0 mi East 3.5 mph - N/A Snow Light Snow Showers
11:00 PM 23.0 °F - 21.2 °F 93% 29.84 in 1.5 mi ESE 2.3 mph - N/A Snow Light Snow Showers
11:26 PM - - - N/A% - 3.0 mi East 2.3 mph - N/A   Unknown